Flag for Germany Weather past 2 weeks in Pirmasens, Rhineland-Palatinate, Germany

Now
43 °F

Overcast.


Feels Like: 34 °F
Forecast: 35 / 41 °F
Wind: 18 mph from Southwest

Location: Ramstein

Current Time: Dec 20, 2014 at 1:33:08 PM

Latest Report: Dec 20, 2014 at 1:02 PM


Visibility: N/A

Pressure: 30.22 "Hg

Humidity: 76%

Dew point: 36 °F

Location of PirmasensLocation

Historic Weather in Pirmasens — Graph

°F

Pirmasens temperature yesterday

Maximum temperature yesterday: 52 °F (at 2:58 AM)
Minimum temperature yesterday: 38 °F (at 11:58 PM)
Average temperature yesterday: 49 °F

Past Weeks' High & Low Weather Summary

 TemperatureHumidityPressure
High54 °F (Dec 18, 3:58 PM)100% (Dec 5, 12:03 PM)30.46 "Hg (Dec 5, 12:03 PM)
Low30 °F (Dec 8, 5:58 PM)65% (Dec 12, 6:58 PM)29.65 "Hg (Dec 12, 5:58 PM)
Average42 °F90%30.05 "Hg
* Reported Dec 5 11:58 AM — Dec 20 11:58 AM, Pirmasens, Weather by CustomWeather, © 2014

Note: Actual official high and low records may vary slightly from our data, if they occured in-between our weather recording intervals... More about our weather records

Advertising

Pirmasens weather history for previous 24 hours

 ConditionsComfort  
Time TempWeatherWind HumidityBarometerVisibility
11:58 AM
Dec 20
43 °FPartly sunny.14 mph76%30.28 "HgN/A
10:58 AM41 °FMore clouds than sun.15 mph84%30.29 "HgN/A
9:58 AM41 °FOvercast.12 mph82%30.30 "HgN/A
8:58 AM40 °FMostly cloudy.13 mph85%30.31 "HgN/A
7:58 AM39 °FMostly cloudy.14 mph87%30.30 "HgN/A
6:59 AM41 °FOvercast.13 mph81%30.26 "HgN/A
5:58 AM41 °FMostly cloudy.14 mph81%30.29 "HgN/A
4:58 AM39 °FPassing clouds.10 mph87%30.29 "HgN/A
3:58 AM35 °FPassing clouds.6 mph91%30.29 "HgN/A
2:58 AM36 °FClear.5 mph88%30.29 "HgN/A
1:58 AM41 °FClear.6 mph76%30.27 "HgN/A
12:58 AM40 °FPassing clouds.5 mph79%30.25 "HgN/A
11:58 PM
Dec 19
38 °FClear.9 mph85%30.24 "HgN/A
10:58 PM43 °FClear.10 mph76%30.19 "HgN/A
9:58 PM45 °FPassing clouds.10 mph87%30.16 "HgN/A
8:58 PM46 °FPassing clouds.9 mph87%30.13 "HgN/A
7:58 PM50 °FPassing clouds.14 mph88%30.08 "HgN/A
7:03 PM50 °FLight rain. Partly cloudy.18 mph94%30.03 "HgN/A
5:58 PM50 °FLight rain. Mostly cloudy.17 mph92%30.01 "HgN/A
5:02 PM50 °FLight rain. Overcast.17 mph94%29.98 "HgN/A
4:01 PM50 °FLight rain. Mostly cloudy.15 mph94%29.98 "HgN/A
2:58 PM50 °FLight rain. Mostly cloudy.16 mph94%30.00 "HgN/A
1:58 PM50 °FLight rain. Fog.17 mph92%30.01 "Hg3 mi
1:00 PM50 °FLight rain. Fog.17 mph94%30.00 "Hg4 mi
Weather by CustomWeather, © 2014

See weather overviewHow to use our weather pages